星链-31382 (STARLINK-31382 )

导读

STARLINK-31382是美国SpaceX公司星链计划的一颗卫星,于2024年3月10日发射升空。该卫星运行在近地轨道,轨道倾角约43.00度,近地点高度482千米,远地点高度484千米,每日绕地球约15.28圈。作为星链星座的组成部分,它主要为全球用户提供高速互联网接入服务,依托低轨星座布局降低通信延迟,拓展全球网络覆盖范围,支撑星链系统的服务能力升级。

Basic Information
目录编号:
59184
目录名称:
STARLINK-31382
国际标识:
2024-045G
轨道中心:
EARTH
卫星名称:
星链-31382
卫星全名:
星链-31382 (STARLINK-31382 )
卫星状态:
在轨 (已飞行908 天)
发射日期:
2024-03-10 UTC
国别 :
美国 (US)
星等 :
--
Orbit Information
数据来源 国际轨道数据 AOE轨道数据
星历时间 2026-09-04T07:40:17+0800
11小时前
查看轨道信息
2026-09-03T23:00:00+0800
20小时前
查看轨道信息
半长轴 6861.187km 6861.175km
偏心率 0.000135 0.0001682
轨道倾角 43.002° 42.998°
近地点辐角 260.734° 215.897°
升交点赤经 165.265° 167.304°
平近点角 99.336° 314.896°
近地点 482.123km 481.883km
远地点 483.977km 484.193km
周期 94.267分钟 94.267分钟
每日圈数 15.275798 15.275838
Detailed Information
固有亮度:
5
最大亮度:
0.3
卫星平台:
Starlink v2.0 mini
覆盖范围:
全球
运营商:
太空探索技术公司
运营商所在国:
美国
制造商(研发单位):
太空探索技术公司
制造商所在国:
美国
使用方式:
暂无
Satellite Introduction
星链(Starlink)计划是由太空探索技术公司(SpaceX)提出的一个巨型低轨卫星互联网星座项目,计划在2019年至2024年间在太空搭建由约1.2万颗卫星组成的“星链”网络,其中1584颗将部署在地球上空550千米处的近地轨道,并从2020年开始工作。该卫星仍在工作。
2D Orbit Map
3D Orbit Map
Orbit Altitude Analysis Chart
Orbit Inclination Analysis Chart
Orbit Comprehensive Analysis Chart
View Comprehensive Chart
Conjunction Data List
Event ID Objects TCA Miss Dist (km) Collision Risk Probability Collision Risk Index (CRI) Action
CDM_260906-034005-918406-402121
2026-09-06T
03:40:56+0000
0.731 km
远距离
4.809863E-5 中风险 0.69
CDM_260906-095005-918406-718521
2026-09-06T
09:50:40+0000
0.930 km
远距离
2.607188E-5 中风险 0.63
CDM_260905-161605-322405-918421
2026-09-05T
16:16:38+0000
1.128 km
极远距离
1.708877E-5 中风险 0.6
CDM_260906-051505-918406-402121
2026-09-06T
05:15:05+0000
1.316 km
极远距离
6.602697E-6 低风险 0.51
CDM_260904-131105-918406-630521
OBJECT N (66305)
2026-09-04T
13:11:02+0000
1.924 km
极远距离
2.341686E-6 低风险 0.42
CDM_260904-144505-918406-402821
2026-09-04T
14:45:06+0000
2.226 km
极远距离
1.944512E-6 低风险 0.41
CDM_260906-020605-918406-402121
2026-09-06T
02:06:47+0000
2.199 km
极远距离
1.522148E-6 低风险 0.39
CDM_260904-021805-316805-918421
2026-09-04T
02:18:49+0000
2.374 km
极远距离
1.310974E-6 低风险 0.37
CDM_260906-064905-918406-402121
2026-09-06T
06:49:14+0000
2.961 km
极远距离
9.362162E-7 极低风险 0.34